Content
SEND FEEDBACK

Daily
Averages
Monthly
Summary
United States of America

FARRELL, MISSISSIPPI


Home > North America > United States > Mississippi
Elevation: 173 feet     Latitude: 34 12N     Longitude: 090 34W

WEATHER
 
SELECT A DAY
Number of Records: 220,938;   Date Range: 3/17/05 - 8/12/14
 
SHARE

PRINT THIS DATA

[ ← Previous Day ]
WEATHER ALMANAC - JANUARY 31, 2013
[ Next Day → ]
[ °C ]   °F
Weather ElementAverageHighLow
Temperature41.3 °F53.6 °F (1:55 pm)32 °F (2:55 am)
Dewpoint31.1 °F37.4 °F (6:55 pm)24.8 °F (11:35 pm)
Humidity69 %93 % (7:35 am)44 % (1:55 pm)
Barometer30.17 in30.36 in (11:55 pm)30.09 in (12:35 am)
Wind Speed10.1 mph21.9 mph (9:55 pm)
Wind Gust29.9 mph (9:55 pm)
Weather ElementAverage
Visibility10 mi
Wind DirectionWSW (237.2 °)

Weather ElementTotal
Precipitation---
Heating Degree Days22.2 (Base 65)
Averaged from 71 records on January 31, 2013
WEATHER CONDITIONS BREAKOUT
WIND DIRECTION BREAKOUT
WEATHER BY HOUR - JANUARY 31, 2013
[ °C ]   °F
Local TimeTemperatureDewpointHumidityBarometerVisibilityWind DirectionWind SpeedGust SpeedPrecipitationEventsConditions
12:35 AM35.6 °F26.6 °F70 %30.09 in10.0 miWNW (290°)15.0 mph21.9 mphClear
12:55 AM35.6 °F26.6 °F70 %30.09 in10.0 miWNW (290°)12.7 mph21.9 mphClear
1:15 AM35.6 °F26.6 °F70 %30.09 in10.0 miWNW (300°)11.5 mphClear
1:35 AM33.8 °F26.6 °F75 %30.09 in10.0 miWNW (290°)9.2 mphClear
1:55 AM33.8 °F26.6 °F75 %30.09 in10.0 miWNW (290°)9.2 mphClear
2:15 AM33.8 °F26.6 °F75 %30.10 in10.0 miWest (280°)5.8 mphClear
2:35 AM33.8 °F26.6 °F75 %30.09 in10.0 miWNW (290°)5.8 mphClear
2:55 AM32.0 °F26.6 °F80 %30.10 in10.0 miWest (280°)5.8 mphClear
3:15 AM32.0 °F26.6 °F80 %30.10 in10.0 miWest (260°)3.5 mphClear
3:35 AM32.0 °F28.4 °F87 %30.10 in10.0 miWest (260°)5.8 mphClear
3:55 AM32.0 °F28.4 °F87 %30.09 in10.0 miWSW (240°)3.5 mphClear
4:15 AM32.0 °F28.4 °F87 %30.10 in10.0 miWSW (240°)4.6 mphClear
4:35 AM32.0 °F28.4 °F87 %30.11 in10.0 miSW (230°)5.8 mphClear
4:55 AM32.0 °F28.4 °F87 %30.12 in10.0 miSW (230°)6.9 mphClear
5:15 AM32.0 °F28.4 °F87 %30.13 in10.0 miSW (220°)8.1 mphClear
5:35 AM32.0 °F28.4 °F87 %30.14 in10.0 miSW (230°)5.8 mphClear
5:55 AM32.0 °F28.4 °F87 %30.15 in10.0 miSW (230°)5.8 mphClear
6:15 AM32.0 °F28.4 °F87 %30.15 in10.0 miWSW (240°)5.8 mphClear
6:35 AM32.0 °F28.4 °F87 %30.16 in10.0 miWSW (250°)4.6 mphClear
6:55 AM32.0 °F28.4 °F87 %30.15 in10.0 miWest (260°)5.8 mphClear
7:15 AM32.0 °F28.4 °F87 %30.17 in10.0 miWSW (250°)4.6 mphClear
7:35 AM32.0 °F30.2 °F93 %30.18 in10.0 miSW (230°)3.5 mphClear
7:55 AM33.8 °F30.2 °F87 %30.20 in10.0 miCalmClear
8:15 AM35.6 °F32.0 °F87 %30.20 in10.0 miWSW (240°)6.9 mphClear
8:35 AM35.6 °F32.0 °F87 %30.21 in10.0 miWSW (250°)5.8 mphClear
8:55 AM37.4 °F32.0 °F81 %30.21 in10.0 miWSW (240°)5.8 mphClear
9:15 AM39.2 °F30.2 °F70 %30.22 in10.0 miWest (260°)5.8 mphClear
9:35 AM41.0 °F30.2 °F65 %30.22 in10.0 miSW (230°)3.5 mphClear
9:55 AM41.0 °F32.0 °F70 %30.22 in10.0 miCalmClear
10:15 AM41.0 °F32.0 °F70 %30.21 in10.0 miCalmClear
10:35 AM42.8 °F32.0 °F66 %30.21 in10.0 miSE (140°)4.6 mphClear
10:55 AM42.8 °F32.0 °F66 %30.21 in10.0 miSSE (160°)3.5 mphClear
11:15 AM44.6 °F32.0 °F61 %30.20 in10.0 miSouth (170°)5.8 mphClear
11:35 AM46.4 °F32.0 °F57 %30.19 in10.0 miSouth (180°)9.2 mphClear
11:55 AM46.4 °F33.8 °F62 %30.18 in10.0 miSouth (170°)10.4 mphClear
12:15 PM46.4 °F33.8 °F62 %30.17 in10.0 miSouth (190°)11.5 mphClear
12:35 PM50.0 °F33.8 °F54 %30.16 in10.0 miSW (220°)12.7 mph17.3 mphClear
12:55 PM50.0 °F33.8 °F54 %30.15 in10.0 miSSW (210°)15.0 mph19.6 mphClear
1:15 PM51.8 °F33.8 °F50 %30.13 in10.0 miSSW (210°)15.0 mph20.7 mphClear
1:35 PM51.8 °F33.8 °F50 %30.12 in10.0 miSSW (210°)17.3 mphClear
1:55 PM53.6 °F32.0 °F44 %30.12 in10.0 miSSW (210°)18.4 mph23.0 mphClear
2:15 PM53.6 °F32.0 °F44 %30.11 in10.0 miSW (220°)18.4 mphClear
2:35 PM53.6 °F32.0 °F44 %30.11 in10.0 miSW (230°)18.4 mphClear
2:55 PM53.6 °F32.0 °F44 %30.11 in10.0 miSW (220°)17.3 mphClear
3:15 PM53.6 °F32.0 °F44 %30.10 in10.0 miSSW (210°)17.3 mphClear
3:35 PM53.6 °F32.0 °F44 %30.09 in10.0 miSSW (210°)16.1 mph21.9 mphClear
3:55 PM53.6 °F32.0 °F44 %30.10 in10.0 miSW (220°)13.8 mphClear
4:15 PM53.6 °F32.0 °F44 %30.12 in10.0 miSW (230°)12.7 mphClear
4:35 PM53.6 °F32.0 °F44 %30.12 in10.0 miSW (230°)10.4 mphClear
4:55 PM53.6 °F33.8 °F47 %30.12 in10.0 miSSW (210°)10.4 mphClear
5:15 PM51.8 °F35.6 °F54 %30.11 in10.0 miSSW (210°)9.2 mphClear
5:35 PM48.2 °F35.6 °F62 %30.12 in10.0 miSSW (200°)6.9 mphClear
5:55 PM46.4 °F33.8 °F62 %30.11 in10.0 miSouth (180°)5.8 mphClear
6:15 PM46.4 °F35.6 °F66 %30.12 in10.0 miSouth (170°)8.1 mphClear
6:35 PM44.6 °F35.6 °F71 %30.13 in10.0 miSouth (190°)6.9 mphClear
6:55 PM46.4 °F37.4 °F71 %30.13 in10.0 miSSW (200°)6.9 mphClear
7:15 PM44.6 °F37.4 °F76 %30.15 in10.0 miSSW (210°)8.1 mphClear
7:35 PM44.6 °F37.4 °F76 %30.15 in10.0 miSSW (210°)6.9 mphClear
7:55 PM44.6 °F37.4 °F76 %30.16 in10.0 miSSW (210°)6.9 mphClear
8:15 PM44.6 °F35.6 °F71 %30.20 in10.0 miNW (320°)17.3 mph27.6 mphScattered Clouds
8:35 PM46.4 °F33.8 °F62 %30.22 in10.0 miNorth (350°)17.3 mph25.3 mphScattered Clouds
8:55 PM44.6 °F33.8 °F66 %30.23 in10.0 miNNW (340°)15.0 mphClear
9:15 PM44.6 °F33.8 °F66 %30.25 in10.0 miNNW (340°)13.8 mphClear
9:35 PM42.8 °F32.0 °F66 %30.26 in10.0 miNNW (340°)15.0 mph20.7 mphClear
9:55 PM41.0 °F32.0 °F70 %30.29 in10.0 miNorth (350°)21.9 mph29.9 mphClear
10:15 PM37.4 °F32.0 °F81 %30.30 in10.0 miNorth (350°)15.0 mph23.0 mphClear
10:35 PM37.4 °F30.2 °F75 %30.32 in10.0 miNNW (340°)21.9 mph27.6 mphClear
10:55 PM35.6 °F28.4 °F75 %30.34 in10.0 miNNW (340°)19.6 mphClear
11:15 PM35.6 °F26.6 °F70 %30.34 in10.0 miNorth (350°)17.3 mph23.0 mphClear
11:35 PM35.6 °F24.8 °F65 %30.35 in10.0 miNorth (350°)19.6 mph26.5 mphClear
11:55 PM33.8 °F24.8 °F70 %30.36 in10.0 miNNW (340°)21.9 mphScattered Clouds
Hourly data recorded from KCKM, located miles away from Farrell, Mississippi







STORIES FROM OUR PARTNERS